Time,TemperatureF,DewpointF,PressureIn,WindDirection,WindDirectionDegrees,WindSpeedMPH,WindSpeedGustMPH,Humidity,HourlyPrecipIn,Conditions,Clouds,dailyrainin,SolarRadiationWatts/m^2,SoftwareType,DateUTC
2013-05-15 00:00:00,42.0,39.0,-100.00,East,90,3.0,-999.0,89,-99.99,,,-99.99,0.000000,,2013-05-15 04:00:00,
2013-05-15 00:43:00,42.0,39.0,-100.00,East,90,3.0,-999.0,89,-99.99,,,-99.99,0.000000,,2013-05-15 04:43:00,
2013-05-15 00:52:00,42.0,39.0,-100.00,East,90,3.0,-999.0,89,-99.99,,,-99.99,0.000000,,2013-05-15 04:52:00,
2013-05-15 01:00:00,42.0,39.0,-100.00,East,90,3.0,-999.0,90,-99.99,,,-99.99,0.000000,,2013-05-15 05:00:00,
2013-05-15 01:42:00,42.0,39.0,-100.00,East,90,3.0,-999.0,90,-99.99,,,-99.99,0.000000,,2013-05-15 05:42:00,
2013-05-15 01:52:00,42.0,39.0,-100.00,East,90,3.0,-999.0,90,-99.99,,,-99.99,0.000000,,2013-05-15 05:52:00,
2013-05-15 02:00:00,42.0,40.0,-100.00,South,180,3.0,-999.0,90,-99.99,,,-99.99,0.000000,,2013-05-15 06:00:00,
2013-05-15 02:42:00,42.0,40.0,-100.00,South,180,3.0,-999.0,90,-99.99,,,-99.99,0.000000,,2013-05-15 06:42:00,
2013-05-15 02:52:00,42.0,40.0,-100.00,South,180,3.0,-999.0,90,-99.99,,,-99.99,0.000000,,2013-05-15 06:52:00,
2013-05-15 03:00:00,41.0,39.0,-100.00,SSE,157,1.0,-999.0,91,-99.99,,,-99.99,0.000000,,2013-05-15 07:00:00,
2013-05-15 03:42:00,41.0,39.0,-100.00,SSE,157,1.0,-999.0,91,-99.99,,,-99.99,0.000000,,2013-05-15 07:42:00,
2013-05-15 03:52:00,41.0,39.0,-100.00,SSE,157,1.0,-999.0,91,-99.99,,,-99.99,0.000000,,2013-05-15 07:52:00,
2013-05-15 04:00:00,40.0,38.0,-100.00,West,270,2.0,-999.0,94,-99.99,,,-99.99,0.000000,,2013-05-15 08:00:00,
2013-05-15 04:42:00,40.0,38.0,-100.00,West,270,2.0,-999.0,94,-99.99,,,-99.99,0.000000,,2013-05-15 08:42:00,
2013-05-15 04:53:00,40.0,38.0,-100.00,West,270,2.0,-999.0,94,-99.99,,,-99.99,0.000000,,2013-05-15 08:53:00,
2013-05-15 05:00:00,42.0,39.0,-100.00,West,270,3.0,-999.0,88,-99.99,,,-99.99,0.000000,,2013-05-15 09:00:00,
2013-05-15 05:42:00,42.0,39.0,-100.00,West,270,3.0,-999.0,88,-99.99,,,-99.99,0.000000,,2013-05-15 09:42:00,
2013-05-15 05:53:00,42.0,39.0,-100.00,West,270,3.0,-999.0,88,-99.99,,,-99.99,0.000000,,2013-05-15 09:53:00,
2013-05-15 06:00:00,47.0,41.0,-100.00,WNW,292,5.0,-999.0,78,-99.99,,,-99.99,0.000000,,2013-05-15 10:00:00,
2013-05-15 06:43:00,47.0,41.0,-100.00,WNW,292,5.0,-999.0,78,-99.99,,,-99.99,0.000000,,2013-05-15 10:43:00,
2013-05-15 06:52:00,47.0,41.0,-100.00,WNW,292,5.0,-999.0,78,-99.99,,,-99.99,0.000000,,2013-05-15 10:52:00,
2013-05-15 07:50:00,51.0,43.0,-100.00,West,270,4.0,-999.0,72,-99.99,,,-99.99,19.719999,,2013-05-15 11:50:00,
2013-05-15 08:00:00,55.0,44.0,-100.00,WNW,292,5.0,-999.0,67,-99.99,,,-99.99,145.000000,,2013-05-15 12:00:00,
2013-05-15 08:49:00,55.0,44.0,-100.00,WNW,292,5.0,-999.0,67,-99.99,,,-99.99,145.000000,,2013-05-15 12:49:00,
2013-05-15 08:57:00,55.0,44.0,-100.00,WNW,292,5.0,-999.0,67,-99.99,,,-99.99,145.000000,,2013-05-15 12:57:00,
2013-05-15 10:00:00,64.0,45.0,-100.00,WNW,292,9.0,-999.0,49,-99.99,,,-99.99,469.799988,,2013-05-15 14:00:00,
2013-05-15 10:51:00,64.0,45.0,-100.00,WNW,292,9.0,-999.0,49,-99.99,,,-99.99,469.799988,,2013-05-15 14:51:00,
2013-05-15 10:59:00,64.0,45.0,-100.00,WNW,292,9.0,-999.0,49,-99.99,,,-99.99,469.799988,,2013-05-15 14:59:00,
2013-05-15 11:00:00,67.0,43.0,-100.00,WNW,292,10.0,-999.0,41,-99.99,,,-99.99,622.919983,,2013-05-15 15:00:00,
2013-05-15 12:00:00,69.0,41.0,-100.00,West,270,9.0,-999.0,35,-99.99,,,-99.99,745.880005,,2013-05-15 16:00:00,
2013-05-15 12:51:00,69.0,41.0,-100.00,West,270,9.0,-999.0,35,-99.99,,,-99.99,745.880005,,2013-05-15 16:51:00,
2013-05-15 12:59:00,69.0,41.0,-100.00,West,270,9.0,-999.0,35,-99.99,,,-99.99,745.880005,,2013-05-15 16:59:00,
2013-05-15 13:00:00,72.0,39.0,-100.00,WNW,292,9.0,-999.0,30,-99.99,,,-99.99,827.080017,,2013-05-15 17:00:00,
2013-05-15 13:49:00,72.0,39.0,-100.00,WNW,292,9.0,-999.0,30,-99.99,,,-99.99,827.080017,,2013-05-15 17:49:00,
2013-05-15 13:59:00,72.0,39.0,-100.00,WNW,292,9.0,-999.0,30,-99.99,,,-99.99,827.080017,,2013-05-15 17:59:00,
2013-05-15 14:00:00,73.0,36.0,-100.00,West,270,9.0,-999.0,25,-99.99,,,-99.99,866.520020,,2013-05-15 18:00:00,
2013-05-15 14:49:00,73.0,36.0,-100.00,West,270,9.0,-999.0,25,-99.99,,,-99.99,866.520020,,2013-05-15 18:49:00,
2013-05-15 14:57:00,73.0,36.0,-100.00,West,270,9.0,-999.0,25,-99.99,,,-99.99,866.520020,,2013-05-15 18:57:00,
2013-05-15 15:00:00,76.0,30.0,-100.00,West,270,10.0,-999.0,18,-99.99,,,-99.99,856.080017,,2013-05-15 19:00:00,
2013-05-15 15:49:00,76.0,30.0,-100.00,West,270,10.0,-999.0,18,-99.99,,,-99.99,856.080017,,2013-05-15 19:49:00,
2013-05-15 15:57:00,76.0,30.0,-100.00,West,270,10.0,-999.0,18,-99.99,,,-99.99,856.080017,,2013-05-15 19:57:00,
2013-05-15 16:00:00,77.0,28.0,-100.00,WNW,292,10.0,-999.0,16,-99.99,,,-99.99,792.280029,,2013-05-15 20:00:00,
2013-05-15 16:47:00,77.0,28.0,-100.00,WNW,292,10.0,-999.0,16,-99.99,,,-99.99,792.280029,,2013-05-15 20:47:00,
2013-05-15 16:58:00,77.0,28.0,-100.00,WNW,292,10.0,-999.0,16,-99.99,,,-99.99,792.280029,,2013-05-15 20:58:00,
2013-05-15 17:00:00,77.0,30.0,-100.00,WSW,247,9.0,-999.0,17,-99.99,,,-99.99,672.799988,,2013-05-15 21:00:00,
2013-05-15 18:00:00,77.0,31.0,-100.00,NW,315,8.0,-999.0,18,-99.99,,,-99.99,535.919983,,2013-05-15 22:00:00,
2013-05-15 18:52:00,77.0,31.0,-100.00,NW,315,8.0,-999.0,18,-99.99,,,-99.99,535.919983,,2013-05-15 22:52:00,
2013-05-15 18:59:00,77.0,31.0,-100.00,NW,315,8.0,-999.0,18,-99.99,,,-99.99,535.919983,,2013-05-15 22:59:00,
2013-05-15 19:00:00,77.0,32.0,-100.00,WNW,292,9.0,-999.0,19,-99.99,,,-99.99,372.359985,,2013-05-15 23:00:00,
2013-05-15 19:50:00,77.0,32.0,-100.00,WNW,292,9.0,-999.0,19,-99.99,,,-99.99,372.359985,,2013-05-15 23:50:00,
2013-05-15 21:00:00,72.0,34.0,-100.00,NW,315,5.0,-999.0,25,-99.99,,,-99.99,55.680000,,2013-05-16 01:00:00,
2013-05-15 21:49:00,72.0,34.0,-100.00,NW,315,5.0,-999.0,25,-99.99,,,-99.99,55.680000,,2013-05-16 01:49:00,
2013-05-15 22:00:00,66.0,36.0,-100.00,WNW,292,1.0,-999.0,32,-99.99,,,-99.99,2.320000,,2013-05-16 02:00:00,
2013-05-15 23:00:00,57.0,40.0,-100.00,West,270,0.0,-999.0,52,-99.99,,,-99.99,0.000000,,2013-05-16 03:00:00,
2013-05-15 23:47:00,57.0,40.0,-100.00,West,270,0.0,-999.0,52,-99.99,,,-99.99,0.000000,,2013-05-16 03:47:00,
2013-05-15 23:56:00,57.0,40.0,-100.00,West,270,0.0,-999.0,52,-99.99,,,-99.99,0.000000,,2013-05-16 03:56:00,